ROMMA est une association bénévole à but non lucratif. Votre soutien est indispensable : ADHERER à ROMMA ou FAIRE un DON

Gresse-en-Vercors - (38, Isère)

Vercors (1245 m)   Longitude: 05° 32' 54" E   Latitude: 44° 53' 34" N Station romma n°131
 

Détail journalier du     <<     >>

Température Precipitation Humidité Vent Dir Rafale Dir. rafale Ensol.
Heure (°C) (mm) (%) (km/h) (km/h) (min)
01:00 9.30737SO11SO0
02:00 9.20677SO11SO0
03:00 8.10717SO10SO0
04:00 8.60717SO11SO0
05:00 8.20735SO11SO0
06:00 8.40727SO13SO0
07:00 9.10737SO10SO0
08:00 8.80796SO10SO0
09:00 11.10754SO11SO15
10:00 13.60663SSO11SSO60
11:00 18.90476SSO24SE60
12:00 19.404613SSO35SSO60
13:00 19.804120SSO42SO60
14:00 19.603423SSO50S60
15:00 20.003717S45SSE60
16:00 19.904215SSO37S60
17:00 19.804414SSO29SSO55
18:00 18.504615SE42SE10
19:00 17.705210SE31SSE5
20:00 14.21.47615SE37S0
21:00 11.314.68314ENE55E0
22:00 10.24.6926SSO18NO0
23:00 10.59.4923SSO16ONO0
minuit 10.10952E11ONO0

Graphique du 01-10-2019

 

Serveur OMMA